Weather in Bayangol

Russia / Republic of Buryatia     53°46′24″N   110°16′11″E
temp.,
°C
wind,
m/s
gust,
m/s
humid.,
%
clouds,
%
prec.,
mm/h
press.,
hPa
HPBL,
m
30 june, thu
thu3023:00+20sse2259100 0.0 100424
02:00+18sse116599 0.0 100512
05:00+17se11665 0.0 100512
08:00+22nnw115417 0.0 1004387
11:00+28nw24401 0.0 10031055
14:00+32nw232949 0.0 10001425
17:00+32wsw33305 0.0 9991403
20:00+25sw36484 0.0 1000194
1 july, fri
fri123:00+20ssw226538 0.1 100238
02:00+18ssw1171100 0.1 100318
05:00+17s118835 0.8 100413
08:00+19wnw117994 1.4 1004210
11:00+27nw224984 0.1 1002884
14:00+29w234441 0.2 1001925
17:00+27s3453100 0.3 999305
20:00+24sse23630 0.6 100098
2 july, sat
sat223:00+19se22771 0.0 100128
02:00+17se22813 0.0 100221
05:00+16ese11820 0.0 100213
08:00+23n21582 0.0 1002407
11:00+28nnw224210 0.0 1000849
14:00+32nw3225100 0.0 9981605
17:00+33n21230 0.0 9971232
20:00+27ne113956 0.0 99711
3 july, sun
sun323:00+23ese2248100 0.1 99829
02:00+20sw355859 0.1 99990
05:00+16sw247898 0.0 1001105
08:00+18ssw2485100 1.8 1001288
11:00+18ssw4788100 2.1 1003486
14:00+18sw348599 3.6 1001505
17:00+18sw4578100 0.3 1001525
20:00+15sw2498100 3.4 1001214
4 july, mon
mon423:00+14ssw2597100 4.7 1000286
02:00+13sw2597100 10.0 1000270
05:00+13sw2496100 0.3 999200
08:00+13sw2495100 0.3 998230
11:00+14sw2391100 0.1 998329
14:00+17wsw237280 0.1 997794
17:00+19wsw336598 0.0 996994
20:00+15wsw2481100 0.0 996263